This is the latest recevied weather packets stored in our database for station/object K3RUP-1. If no packets are shown the sender has not sent any weather packets the latest 1 day(s).
| Time | Temp. | Humidity | Pressure | Rain* | Wind** | Luminosity | Snow |
|---|---|---|---|---|---|---|---|
| 1778001478 | 27.22° C | 51% | 1010.4 hPa | 0 mm | 0 m/s | 734 W/m² | - |
| 1778001175 | 26.67° C | 50% | 1010.7 hPa | 0 mm | 0 m/s | 737 W/m² | - |
| 1778000872 | 27.22° C | 51% | 1010.5 hPa | 0 mm | 0 m/s | 712 W/m² | - |
| 1778000569 | 27.22° C | 52% | 1010.5 hPa | 0 mm | 0 m/s | 637 W/m² | - |
| 1778000264 | 26.67° C | 53% | 1010.7 hPa | 0 mm | 0 m/s | 607 W/m² | - |
| 1777999960 | 26.11° C | 54% | 1010.7 hPa | 0 mm | 0 m/s | 655 W/m² | - |
| 1777999656 | 25.56° C | 54% | 1010.9 hPa | 0 mm | 0 m/s | 710 W/m² | - |
| 1777999353 | 25.56° C | 54% | 1011 hPa | 0 mm | 0 m/s | 695 W/m² | - |
| 1777999052 | 25.56° C | 56% | 1010.8 hPa | 0 mm | 0 m/s | 646 W/m² | - |
| 1777998750 | 25.56° C | 55% | 1010.9 hPa | 0 mm | 0 m/s | 655 W/m² | - |
| 1777998447 | 25° C | 54% | 1011 hPa | 0 mm | 0 m/s | 689 W/m² | - |
| 1777998144 | 25° C | 57% | 1011.2 hPa | 0 mm | 0 m/s | 714 W/m² | - |
| 1777997840 | 25° C | 56% | 1011.3 hPa | 0 mm | 0 m/s | 683 W/m² | - |
| 1777997538 | 25° C | 56% | 1011.2 hPa | 0 mm | 0 m/s | 670 W/m² | - |
| 1777997235 | 24.44° C | 56% | 1011.2 hPa | 0 mm | 0 m/s | 708 W/m² | - |
| 1777996933 | 25° C | 56% | 1011.2 hPa | 0 mm | 0 m/s | 739 W/m² | - |
| 1777996629 | 25° C | 57% | 1011.5 hPa | 0 mm | 0 m/s | 709 W/m² | - |
| 1777996326 | 25° C | 57% | 1011.3 hPa | 0 mm | 0 m/s | 697 W/m² | - |
| 1777996022 | 25° C | 56% | 1011.4 hPa | 0 mm | 0 m/s | 703 W/m² | - |
| 1777995718 | 25° C | 55% | 1011.5 hPa | 0 mm | 0 m/s | 725 W/m² | - |
| 1777995415 | 25.56° C | 54% | 1011.5 hPa | 0 mm | 0 m/s | 730 W/m² | - |
| 1777995112 | 25.56° C | 52% | 1011.3 hPa | 0 mm | 0 m/s | 753 W/m² | - |
| 1777994809 | 25.56° C | 52% | 1011.4 hPa | 0 mm | 0 m/s | 762 W/m² | - |
| 1777994505 | 25° C | 52% | 1011.4 hPa | 0 mm | 0 m/s | 758 W/m² | - |
| 1777994200 | 25.56° C | 51% | 1011.4 hPa | 0 mm | 0 m/s | 766 W/m² | - |
* Rain latest hour (hover to see other rain measurements)
** Current wind speed in m/s (hover to see current wind gust speed)